| time (UTC) | temp F | wind direction | speed knots | gust knots | rain 1hr in | rain 24hr in | rain mn in | humidity % | barometer mb |
| 20260505130112 | 52 | 304 | 8.7 | 0.0 | 0.00 | 0.00 | 0.00 | 63 | 977.7 |
| 20260505124539 | 51 | 312 | 7.0 | 0.0 | 0.00 | 0.00 | 0.00 | 70 | 976.9 |
| 20260505123059 | 51 | 307 | 7.8 | 0.0 | 0.00 | 0.00 | 0.00 | 69 | 975.4 |
| 20260505121539 | 51 | 302 | 7.8 | 0.0 | 0.00 | 0.00 | 0.00 | 69 | 975.4 |
| 20260505120123 | 50 | 288 | 8.7 | 0.0 | 0.00 | 0.00 | 0.00 | 69 | 975.4 |
| 20260505114540 | 50 | 281 | 7.8 | 0.0 | 0.00 | 0.00 | 0.00 | 68 | 975.3 |
| 20260505113057 | 50 | 286 | 7.8 | 0.0 | 0.00 | 0.00 | 0.00 | 66 | 973.8 |
| 20260505111540 | 50 | 281 | 6.1 | 0.0 | 0.00 | 0.00 | 0.00 | 66 | 973.8 |
| 20260505110116 | 50 | 270 | 5.2 | 0.0 | 0.00 | 0.00 | 0.00 | 66 | 973.8 |
| 20260505101539 | 50 | 259 | 8.7 | 0.0 | 0.00 | 0.00 | 0.00 | 57 | 972.3 |
| 20260505100115 | 51 | 263 | 9.6 | 0.0 | 0.00 | 0.00 | 0.00 | 57 | 972.3 |
| 20260505094539 | 51 | 260 | 8.7 | 0.0 | 0.00 | 0.00 | 0.00 | 68 | 972.6 |
| 20260505093102 | 51 | 264 | 7.0 | 0.0 | 0.00 | 0.00 | 0.00 | 65 | 972.3 |
| 20260505091539 | 51 | 256 | 10.4 | 0.0 | 0.00 | 0.00 | 0.00 | 65 | 972.2 |
| 20260505090118 | 51 | 239 | 5.2 | 0.0 | 0.00 | 0.00 | 0.00 | 65 | 972.2 |
| 20260505084538 | 53 | 260 | 8.7 | 0.0 | 0.00 | 0.00 | 0.00 | 75 | 972.7 |
| 20260505083058 | 52 | 256 | 8.7 | 0.0 | 0.00 | 0.00 | 0.00 | 75 | 972.0 |
| 20260505081539 | 53 | 254 | 8.7 | 0.0 | 0.00 | 0.00 | 0.00 | 75 | 972.0 |
| 20260505080110 | 54 | 254 | 9.6 | 0.0 | 0.00 | 0.00 | 0.00 | 67 | 972.2 |
| 20260505074540 | 55 | 245 | 10.4 | 0.0 | 0.00 | 0.00 | 0.00 | 76 | 971.4 |
| 20260505073100 | 55 | 233 | 8.7 | 0.0 | 0.00 | 0.00 | 0.00 | 76 | 971.4 |
| 20260505071540 | 56 | 224 | 10.4 | 0.0 | 0.00 | 0.00 | 0.00 | 76 | 971.5 |
| 20260505070112 | 57 | 226 | 10.4 | 0.0 | 0.00 | 0.00 | 0.00 | 76 | 971.5 |
| 20260505064539 | 56 | 235 | 8.7 | 0.0 | 0.00 | 0.00 | 0.00 | 77 | 972.1 |
| 20260505063056 | 57 | 231 | 10.4 | 0.0 | 0.00 | 0.00 | 0.00 | 74 | 971.5 |
| 20260505061540 | 57 | 234 | 10.4 | 0.0 | 0.00 | 0.00 | 0.00 | 74 | 971.5 |
| 20260505060120 | 58 | 233 | 9.6 | 0.0 | 0.00 | 0.00 | 0.00 | 74 | 971.5 |
| 20260505054540 | 58 | 243 | 7.8 | 0.0 | 0.00 | 0.00 | 0.00 | 74 | 972.6 |
| 20260505053103 | 58 | 230 | 10.4 | 0.0 | 0.00 | 0.00 | 0.00 | 66 | 971.2 |
| 20260505051539 | 59 | 231 | 10.4 | 0.0 | 0.00 | 0.00 | 0.00 | 66 | 971.3 |
| 20260505050109 | 60 | 232 | 11.3 | 0.0 | 0.00 | 0.00 | 0.00 | 66 | 971.3 |
| 20260505041539 | 62 | 237 | 7.8 | 0.0 | 0.00 | 0.00 | 0.00 | 62 | 971.4 |
| 20260505040115 | 62 | 225 | 10.4 | 0.0 | 0.00 | 0.00 | 0.00 | 62 | 971.4 |
| 20260505034536 | 62 | 216 | 10.4 | 0.0 | 0.00 | 0.00 | 0.00 | 61 | 971.0 |
| 20260505033059 | 62 | 206 | 12.2 | 0.0 | 0.00 | 0.00 | 0.00 | 65 | 971.0 |
| 20260505031539 | 62 | 209 | 13.9 | 0.0 | 0.00 | 0.00 | 0.00 | 65 | 971.0 |
| 20260505030111 | 62 | 207 | 13.0 | 0.0 | 0.00 | 0.00 | 0.00 | 65 | 971.0 |
| 20260505024539 | 63 | 204 | 13.9 | 0.0 | 0.00 | 0.00 | 0.00 | 54 | 971.3 |
| 20260505023059 | 64 | 212 | 16.5 | 0.0 | 0.00 | 0.00 | 0.00 | 55 | 971.4 |
| 20260505021538 | 63 | 211 | 15.6 | 0.0 | 0.00 | 0.00 | 0.00 | 55 | 971.4 |
| 20260505020111 | 63 | 209 | 16.5 | 0.0 | 0.00 | 0.00 | 0.00 | 55 | 971.4 |
| 20260505014539 | 64 | 207 | 15.6 | 0.0 | 0.00 | 0.00 | 0.00 | 45 | 970.5 |
| 20260505013057 | 64 | 209 | 16.5 | 0.0 | 0.00 | 0.00 | 0.00 | 45 | 970.5 |
| 20260505011539 | 63 | 212 | 13.9 | 0.0 | 0.00 | 0.00 | 0.00 | 45 | 970.5 |
| 20260505010107 | 65 | 202 | 10.4 | 0.0 | 0.00 | 0.00 | 0.00 | 45 | 970.5 |
| 20260505004539 | 65 | 207 | 7.8 | 0.0 | 0.00 | 0.00 | 0.00 | 42 | 971.1 |
| 20260505003056 | 66 | 198 | 7.0 | 0.0 | 0.00 | 0.00 | 0.00 | 42 | 971.9 |
| 20260505001538 | 66 | 198 | 6.1 | 0.0 | 0.00 | 0.00 | 0.00 | 42 | 971.9 |
| 20260505000115 | 68 | 213 | 5.2 | 0.0 | 0.00 | 0.00 | 0.00 | 42 | 971.9 |
| 20260504234539 | 69 | 227 | 7.0 | 0.0 | 0.00 | 0.00 | 0.00 | 35 | 971.8 |
| 20260504233057 | 69 | 241 | 8.7 | 0.0 | 0.00 | 0.00 | 0.00 | 35 | 971.7 |
| 20260504231538 | 70 | 248 | 10.4 | 0.0 | 0.00 | 0.00 | 0.00 | 35 | 971.6 |
| 20260504230105 | 71 | 247 | 11.3 | 0.0 | 0.00 | 0.00 | 0.00 | 35 | 971.6 |
| 20260504224539 | 71 | 252 | 13.9 | 0.0 | 0.00 | 0.00 | 0.00 | 37 | 971.3 |
| 20260504223059 | 72 | 251 | 15.6 | 0.0 | 0.00 | 0.00 | 0.00 | 36 | 971.7 |
| 20260504221538 | 72 | 246 | 15.6 | 0.0 | 0.00 | 0.00 | 0.00 | 36 | 971.6 |
| 20260504220114 | 73 | 247 | 14.8 | 0.0 | 0.00 | 0.00 | 0.00 | 36 | 971.6 |
| 20260504214537 | 72 | 243 | 16.5 | 0.0 | 0.00 | 0.00 | 0.00 | 36 | 972.7 |
| 20260504213100 | 72 | 243 | 16.5 | 0.0 | 0.00 | 0.00 | 0.00 | 36 | 972.7 |
| 20260504211538 | 73 | 243 | 18.2 | 0.0 | 0.00 | 0.00 | 0.00 | 38 | 971.7 |
| 20260504210111 | 73 | 238 | 18.2 | 0.0 | 0.00 | 0.00 | 0.00 | 38 | 971.6 |
| 20260504204543 | 73 | 237 | 17.4 | 0.0 | 0.00 | 0.00 | 0.00 | 37 | 972.5 |
| 20260504203054 | 73 | 235 | 16.5 | 0.0 | 0.00 | 0.00 | 0.00 | 37 | 972.5 |
| 20260504201544 | 73 | 239 | 17.4 | 0.0 | 0.00 | 0.00 | 0.00 | 37 | 972.5 |
| 20260504200108 | 73 | 226 | 16.5 | 0.0 | 0.00 | 0.00 | 0.00 | 40 | 971.7 |
| 20260504194544 | 74 | 229 | 16.5 | 0.0 | 0.00 | 0.00 | 0.00 | 34 | 972.6 |
| 20260504193103 | 74 | 228 | 16.5 | 0.0 | 0.00 | 0.00 | 0.00 | 34 | 972.6 |
| 20260504191545 | 73 | 227 | 16.5 | 0.0 | 0.00 | 0.00 | 0.00 | 34 | 972.6 |
| 20260504190112 | 73 | 225 | 17.4 | 0.0 | 0.00 | 0.00 | 0.00 | 34 | 972.6 |
| 20260504184540 | 73 | 222 | 15.6 | 0.0 | 0.00 | 0.00 | 0.00 | 27 | 973.6 |
| 20260504183104 | 73 | 228 | 15.6 | 0.0 | 0.00 | 0.00 | 0.00 | 31 | 973.3 |
| 20260504181544 | 72 | 230 | 14.8 | 0.0 | 0.00 | 0.00 | 0.00 | 31 | 973.3 |
| 20260504180119 | 72 | 232 | 15.6 | 0.0 | 0.00 | 0.00 | 0.00 | 31 | 973.3 |
| 20260504174543 | 72 | 233 | 15.6 | 0.0 | 0.00 | 0.00 | 0.00 | 34 | 974.2 |
| 20260504173059 | 71 | 229 | 15.6 | 0.0 | 0.00 | 0.00 | 0.00 | 38 | 974.0 |
| 20260504171542 | 70 | 231 | 16.5 | 0.0 | 0.00 | 0.00 | 0.00 | 38 | 974.0 |
| 20260504170109 | 70 | 227 | 16.5 | 0.0 | 0.00 | 0.00 | 0.00 | 34 | 973.8 |
| 20260504160115 | 67 | 220 | 13.9 | 0.0 | 0.00 | 0.00 | 0.00 | 44 | 974.3 |
| 20260504150118 | 63 | 221 | 12.2 | 0.0 | 0.00 | 0.00 | 0.00 | 59 | 974.7 |
| 20260504140121 | 58 | 220 | 12.2 | 0.0 | 0.00 | 0.00 | 0.00 | 63 | 974.9 |